Weather History for Detroit Metro, MI

Change the Weather History Date:

Tuesday, November 11, 2014

  Actual Average Record
Temperature  
Mean Temperature 52 °F 44 °F  
Max Temperature 64 °F 51 °F 71 °F (1964)
Min Temperature 39 °F 36 °F 19 °F (1926)
Degree Days  
Heating Degree Days 13 22  
Month to date heating degree days 233 217  
Since 1 July heating degree days 745 728  
Cooling Degree Days 0 0  
Month to date cooling degree days 0 0  
Year to date cooling degree days 704 803  
Growing Degree Days 2 (Base 50)    
Moisture  
Dew Point 39 °F    
Average Humidity 63    
Maximum Humidity 77    
Minimum Humidity 48    
Precipitation  
Precipitation T in 0.09 in 1.16 in (1879)
Month to date precipitation 0.15 0.99  
Year to date precipitation 34.64 29.21  
Snow  
Snow 0.00 in 0.00 in 4.10 in (1984)
Month to date snowfall 0.0 0.2  
Since 1 July snowfall T 0.3  
Since 1 September snowfall T 0.3  
Snow Depth 0.00 in    
Sea Level Pressure  
Sea Level Pressure 29.75 in    
Wind  
Wind Speed 15 mph (SSW)    
Max Wind Speed 28 mph    
Max Gust Speed 33 mph    
Visibility 10 miles    
Events Rain    
T = Trace of Precipitation, MM = Missing Value Source: NWS Daily Summary

Daily Weather History Graph

Daily Weather History Graph

Search for Another Location

Airport:

Trip Planner

Search our weather history database for the weather conditions in past years. The results will help you decide how hot, cold, wet, or windy it might be!

Date:

Astronomy

Nov. 11, 2014 Rise Set
Actual Time 7:18 AM EST 5:15 PM EST
Civil Twilight 6:48 AM EST 5:45 PM EST
Nautical Twilight 6:15 AM EST 6:18 PM EST
Astronomical Twilight 5:42 AM EST 6:51 PM EST
Moon 9:37 PM EST (11/11) 11:24 AM EST (11/11)
Length of Visible Light 10h 56m
Length of Day
9h 56m
Waning Gibbous, 77% of the Moon is Illuminated
Nov 11
Waning Gibbous
Nov 14
Last Quarter
Nov 22
New
Nov 29
First Quarter
Dec 6
Full

Hourly Weather History & Observations

Time (EST) Temp. Windchill Dew Point Humidity Pressure Visibility Wind Dir Wind Speed Gust Speed Precip Events Conditions
12:53 AM 45.0 °F 41.2 °F 35.1 °F 68% 29.75 in 10.0 mi SSE 6.9 mph - N/A   Scattered Clouds
1:53 AM 46.9 °F - 35.1 °F 63% 29.75 in 10.0 mi South 9.2 mph - N/A   Scattered Clouds
2:53 AM 46.9 °F - 35.1 °F 63% 29.74 in 10.0 mi South 6.9 mph - N/A   Partly Cloudy
3:53 AM 46.9 °F - 34.0 °F 61% 29.74 in 10.0 mi South 8.1 mph - N/A   Partly Cloudy
4:53 AM 46.0 °F 41.9 °F 34.0 °F 63% 29.74 in 10.0 mi South 8.1 mph - N/A   Partly Cloudy
5:53 AM 46.9 °F - 35.1 °F 63% 29.74 in 10.0 mi South 9.2 mph - N/A   Partly Cloudy
6:53 AM 46.0 °F 41.9 °F 35.1 °F 66% 29.73 in 10.0 mi South 8.1 mph - N/A   Scattered Clouds
7:53 AM 48.0 °F - 35.1 °F 61% 29.74 in 10.0 mi South 8.1 mph - N/A   Scattered Clouds
8:53 AM 52.0 °F - 37.0 °F 57% 29.74 in 10.0 mi South 12.7 mph - N/A   Scattered Clouds
9:53 AM 55.9 °F - 39.0 °F 53% 29.73 in 10.0 mi South 15.0 mph - N/A   Mostly Cloudy
10:53 AM 60.1 °F - 41.0 °F 49% 29.70 in 10.0 mi South 16.1 mph - N/A   Mostly Cloudy
11:53 AM 62.1 °F - 43.0 °F 50% 29.68 in 10.0 mi SSW 19.6 mph - N/A   Mostly Cloudy
12:53 PM 62.1 °F - 44.1 °F 52% 29.68 in 10.0 mi South 21.9 mph - N/A   Overcast
1:53 PM 63.0 °F - 45.0 °F 52% 29.67 in 10.0 mi SSW 18.4 mph - N/A   Overcast
2:53 PM 61.0 °F - 45.0 °F 56% 29.68 in 10.0 mi SSW 21.9 mph 27.6 mph N/A   Overcast
3:53 PM 57.9 °F - 48.0 °F 70% 29.70 in 9.0 mi SSW 26.5 mph 33.4 mph 0.00 in   Overcast
4:53 PM 55.0 °F - 48.9 °F 80% 29.73 in 10.0 mi SSW 18.4 mph - N/A   Overcast
5:00 PM 53.6 °F - 48.2 °F 82% 29.72 in 9.0 mi SW 17.3 mph - 0.00 in Rain Light Rain
5:53 PM 52.0 °F - 48.0 °F 86% 29.74 in 9.0 mi SW 17.3 mph 26.5 mph 0.00 in Rain Light Rain
6:53 PM 46.9 °F - 42.1 °F 83% 29.78 in 10.0 mi West 15.0 mph 29.9 mph 0.00 in   Overcast
7:53 PM 44.1 °F 35.7 °F 37.9 °F 79% 29.81 in 10.0 mi West 20.7 mph 28.8 mph N/A   Overcast
8:53 PM 43.0 °F 35.7 °F 36.0 °F 76% 29.83 in 10.0 mi WSW 15.0 mph 26.5 mph N/A   Overcast
9:53 PM 41.0 °F 33.1 °F 34.0 °F 76% 29.86 in 10.0 mi West 15.0 mph 23.0 mph N/A   Overcast
10:53 PM 39.9 °F 31.1 °F 32.0 °F 73% 29.88 in 10.0 mi West 17.3 mph 27.6 mph N/A   Overcast
11:05 PM 39.2 °F 31.2 °F 32.0 °F 75% 29.88 in 10.0 mi West 13.8 mph 23.0 mph N/A   Overcast
11:53 PM 39.0 °F 29.6 °F 30.0 °F 70% 29.92 in 10.0 mi West 18.4 mph 25.3 mph N/A   Overcast